BREEZE-M DEB (TANK), 45988

Orbit data source: Space-Track

BREEZE-M DEB (TANK), 45988 is space debris in HEO originally from a launch on Thu, 30 Jul 2020 UTC launched from the Tyuratam Missile And Space Complex (TTMTR). Debris objects in space refer to the collection of defunct objects orbiting the Earth. Examples of debris include non-operational satellites, rocket bodies, and fragments generated from explosions, collisions, or faulty payload assembly.

Loading next visibility...
Identifier
45988, 2020-053D
Orbit
HEO
Last TLE update
2 days ago
Origin
Manufacturer
Khrunichev
Mission
Spacecraft
Bus & Motor
BRIZ TANK, Unknown motor
Mass
~1,000 kg wet, 1,000 kg dry
Launch date (UTC)
2020-07-30 (5 years ago)
Launch vehicle
Unknown
Launch site
Tyuratam Missile And Space Complex (TTMTR)
Object type
Payload
Rocket body
Debris
Shape & HBR
Torus, Unknown HBR
Radar Cross Section
8.218 m², Large (>1 m²)

Expand to show TLE details & history

TLE from 2 days ago
0 BREEZE-M DEB (TANK)
1 45988U 20053D   25190.22035159  .00000209  00000-0  24755-3 0  9995
2 45988  49.5285 168.6804 6211335 166.9200 222.8496  3.63859963 64271
Epoch: 2025-07-09T05:17Z
TLE epoch observation values (Epoch: 2025-07-09T05:17:18.377Z)
Latitude
-0.00004°
Longitude
161.95306°
Altitude
21,373.606 km
Speed
2.531 km/s
True Right ascension
11h 14m 44s
True Declination
0° 00' 00"
Sunlit
Object was in daylight at epoch
Visualization orbit readout
Latitude
-46.99931°
Longitude
94.97827°
Altitude
9,210.23 km
Speed
5.371 km/s
Apparent Right ascension
06h 51m 58s
Apparent Declination
-44° 51' 01"
Sunlit
Object is in daylight
Visualization observer readout
Local Sidereal Time
19:03:07
Azimuth
158.268° S
Elevation
-84.654°
Doppler factor
1
Orbital elements
Apogee altitude
22,569.591 km
Perigee altitude
387.083 km
Semi-major axis
17,856.474 km
Eccentricity
0.62113
Inclination
49.5285°
RAAN
168.6804°
Arg. of periapsis
166.92°
True anomaly
Unknown
Mean anomaly
222.8496°
Eccentric anomaly
Unknown
Mean motion
0.9096 °/min
Orbital period
395.78 mins
BSTAR
0.00024755
Loading maneuver chart data...
Loading SW <> Apogee altitude chart data...
Loading historical data...
Loading historical data...
Loading historical data...
Loading historical data...
Loading historical data...
Loading historical data...
Loading historical data...
Other satellites on launch #53 in the year 2020 (2020-07-30 UTC)

BREEZE-M DEB (TANK) Visibility forecast

Observer location: undefined°, undefined°

Span
Click to sort rows by Start time (UTC) header in descending order
Start Az.
Max El. time (UTC)
Max El. Az.
Max El.
End time (UTC)
End Az.
255 mins2025-07-11 21:10:51.355Z179.351° S2025-07-12 00:57:51.355Z137.469° SSE44.539°2025-07-12 01:25:51.355Z57.242° ENE
|